Regional Weather Roundup
Issued by NWS Bismarck, ND

Home | Current Version | Previous Version | Text Only | Print | Product List | Glossary On
Versions: 1 2 3 4 5 6 7 8 9 10 11 12 13 14 15 16 17 18 19 20 21 22 23 24 25 26 27 28 29 30 31 32 33 34 35 36 37 38 39 40 41 42 43 44 45 46 47 48 49 50
740
ASUS43 KBIS 060210
RWRBIS

NWR BROADCAST TEXT
NATIONAL WEATHER SERVICE BISMARCK ND
800 PM CST FRI FEB 05 2016

NOTE: "FAIR" INDICATES FEW OR NO CLOUDS BELOW 12,000 FEET WITH NO
SIGNIFICANT WEATHER AND/OR OBSTRUCTIONS TO VISIBILITY.


CITY           SKY/WX    TMP DP  RH WIND       PRES   REMARKS
WILLISTON      CLOUDY    33  25  72 CALM      30.00F
MINOT          CLOUDY    34  21  59 SW6       30.00F
MINOT AFB      CLOUDY    27  23  84 CALM      30.00F
BISMARCK       CLEAR     28  21  75 SE3       30.09F
DICKINSON      CLOUDY    31  22  69 SW12      30.02F
GARRISON         N/A     26  20  77 S5        30.03F
HETTINGER ARPT CLOUDY    26  19  74 W7        30.10F WCI  18
JAMESTOWN      CLOUDY    23  17  78 SW5       30.08F WCI  17
BEACH          FAIR      28  25  86 SW7       30.07F
CARRINGTON     FAIR      23  21  93 SW9       30.08F WCI  13
HAZEN          FAIR      25  21  86 CALM      30.07F
LINTON         FAIR      28  27  93 SW9       30.13S WCI  20
MANDAN         FAIR      30  23  74 SW8       30.08F
OAKES          FAIR      21  19  93 S5        30.13F WCI  15
RUGBY          FAIR      23  19  86 SW8       30.03F WCI  14
STANLEY        FAIR      27  27 100 S7        30.01F WCI  19
TIOGA          FAIR      28  27  93 SW16      30.03S WCI  17
WATFORD CITY   FAIR      27  25  93 SW6       30.02S WCI  20
$$

CITY           SKY/WX    TMP DP  RH WIND       PRES   REMARKS
GRAND FORKS    CLOUDY    18  14  84 SW6       30.11F WCI  10
GRAND FORKS AF CLOUDY    19  15  85 S5        30.10F WCI  12
DEVILS LAKE    CLOUDY    18  15  88 CALM      30.05F
FARGO          CLOUDY    22  18  85 SW3       30.13F
CAVALIER       FAIR      16  14  93 S7        30.08S WCI   6
GRAFTON        FAIR      14  14 100 S7        30.11S WCI   4
GWINNER          N/A     18  16  93 S5        30.14F WCI  11
LANGDON        FAIR      16  14  93 SW10      30.03F WCI   3
ROLLA          MOCLDY    23  18  80 SW6       30.01F WCI  16
WALHALLA       FAIR      21  21 100 S3        30.07S
$$

CITY           SKY/WX    TMP DP  RH WIND       PRES   REMARKS
ABERDEEN       CLEAR     24  19  81 SW7       30.16S WCI  16
MOBRIDGE       CLEAR     29  22  75 SE5       30.11S
BUFFALO          N/A     29  20  69 W10       30.04F WCI  20
RAPID CITY     CLEAR     29  21  72 SW6       30.16F
GLASGOW        CLOUDY    36  25  64 SW7       29.97F
SIDNEY         CLOUDY    30  23  74 S10       30.02F
WOLF POINT     CLOUDY    32  25  75 SW7       29.99F
GLENDIVE       CLEAR     34  23  64 SW7       30.06F
MILES CITY     CLOUDY    37  23  56 SW14      30.06F
BAKER          CLOUDY    35  20  54 SW13      30.07F
$$

CITY           SKY/WX    TMP DP  RH WIND       PRES   REMARKS
BILLINGS       CLEAR     37  13  37 SW21      30.12F
GREAT FALLS    CLOUDY    42  23  46 SW23      30.06S
REGINA         PTCLDY    25  19  80 S12       29.89F WCI  14
ESTEVAN        PTCLDY    23  21  93 S9        29.96S WCI  13
$$





USA.gov is the U.S. government's official web portal to all federal, state and local government web resources and services.